Asheville, NC

10:09 PM EST on January 22, 2018 (GMT -0500)
Asheville Regional

Weather History for KAVL - October, 2008

Change the Weather History Date:

Friday, October 17, 2008

  Actual Average Record
Temperature  
Mean Temperature 60 °F 56 °F  
Max Temperature 65 °F 68 °F 85 °F (1897)
Min Temperature 54 °F 44 °F 31 °F (1987)
Degree Days  
Heating Degree Days 5 9  
Month to date heating degree days 83 119  
Since 1 July heating degree days 119 176  
Cooling Degree Days 0 0  
Month to date cooling degree days 2 7  
Year to date cooling degree days 875 859  
Growing Degree Days 10 (Base 50)    
Moisture  
Dew Point 58 °F    
Average Humidity 92    
Maximum Humidity 100    
Minimum Humidity 83    
Precipitation  
Precipitation 0.23 in 0.10 in 2.14 in (1911)
Month to date precipitation 0.78 1.65  
Year to date precipitation 28.22 37.07  
Snow  
Snow 0.00 in 0.00 in 0.00 in ()
Month to date snowfall 0.0 0.0  
Since 1 July snowfall 0.0 0.0  
Since 1 September snowfall 0.0 0.0  
Snow Depth -    
Sea Level Pressure  
Sea Level Pressure 30.03 in    
Wind  
Wind Speed 8 mph (NNW)    
Max Wind Speed 20 mph    
Max Gust Speed 25 mph    
Visibility 8 miles    
Events Rain    
T = Trace of Precipitation, MM = Missing Value Source: NWS Daily Summary

Daily Weather History Graph

Daily Weather History Graph

Search for Another Location

Airport or City:

Trip Planner

Search our weather history database for the weather conditions in past years. The results will help you decide how hot, cold, wet, or windy it might be!

Date:

Astronomy

Oct. 17, 2008 Rise Set
Actual Time 7:38 AM EDT 6:51 PM EDT
Civil Twilight 7:12 AM EDT 7:17 PM EDT
Nautical Twilight 6:43 AM EDT 7:46 PM EDT
Astronomical Twilight 6:13 AM EDT 8:16 PM EDT
Moon 8:45 PM EDT (10/17) 11:00 AM EDT (10/17)
Length of Visible Light 12h 04m
Length of Day
11h 13m
Waning Gibbous, 89% of the Moon is Illuminated
Oct 17
Waning Gibbous
Oct 21
Last Quarter
Oct 28
New
Nov 5
First Quarter
Nov 13
Full

Hourly Weather History & Observations

Time (EDT) Temp. Dew Point Humidity Pressure Visibility Wind Dir Wind Speed Gust Speed Precip Events Conditions
12:54 AM 64.9 °F 60.1 °F 84% 30.05 in 10.0 mi NNW 4.6 mph - N/A   Mostly Cloudy
1:54 AM 63.0 °F 60.1 °F 90% 30.04 in 10.0 mi Calm Calm - N/A   Overcast
2:54 AM 64.0 °F 60.1 °F 87% 30.03 in 10.0 mi North 4.6 mph - 0.00 in Rain Light Rain
3:54 AM 63.0 °F 61.0 °F 93% 30.02 in 6.0 mi NNW 6.9 mph - 0.01 in Rain Light Rain
4:54 AM 62.1 °F 61.0 °F 96% 30.01 in 5.0 mi NW 3.5 mph - 0.01 in Rain Light Rain
5:40 AM 62.6 °F 60.8 °F 94% 30.07 in 4.0 mi Calm Calm - 0.03 in Rain Light Rain
5:54 AM 63.0 °F 61.0 °F 93% 30.01 in 7.0 mi North 5.8 mph - 0.03 in   Overcast
6:54 AM 62.1 °F 61.0 °F 96% 30.02 in 3.0 mi NW 3.5 mph - 0.05 in Rain Rain
7:54 AM 62.1 °F 61.0 °F 96% 30.03 in 2.5 mi Calm Calm - 0.04 in Rain Light Rain
8:02 AM 62.6 °F 60.8 °F 94% 30.08 in 2.0 mi Calm Calm - 0.01 in Rain Light Rain
8:11 AM 60.8 °F 60.8 °F 100% 30.08 in 1.5 mi Calm Calm - 0.02 in Rain Light Rain
8:29 AM 62.6 °F 60.8 °F 94% 30.08 in 1.5 mi Calm Calm - 0.03 in Rain Light Rain
8:54 AM 62.1 °F 62.1 °F 100% 30.03 in 1.5 mi Calm Calm - 0.03 in Rain Light Rain
9:01 AM 62.6 °F 60.8 °F 94% 30.09 in 2.0 mi Calm Calm - 0.00 in Rain Light Rain
9:54 AM 63.0 °F 62.1 °F 97% 30.04 in 2.0 mi NNW 4.6 mph - 0.05 in Rain Light Rain
10:54 AM 64.0 °F 62.1 °F 93% 30.03 in 3.0 mi NNW 6.9 mph - 0.00 in   Overcast
11:30 AM 64.4 °F 60.8 °F 88% 30.07 in 10.0 mi North 6.9 mph - N/A   Overcast
11:54 AM 64.0 °F 60.1 °F 87% 30.02 in 10.0 mi NNW 6.9 mph - N/A   Overcast
12:05 PM 64.4 °F 60.8 °F 88% 30.07 in 10.0 mi NNW 8.1 mph - N/A   Overcast
12:54 PM 63.0 °F 59.0 °F 87% 30.01 in 10.0 mi NNW 9.2 mph - N/A   Overcast
1:54 PM 64.0 °F 59.0 °F 84% 29.99 in 10.0 mi NNW 8.1 mph - N/A   Overcast
2:54 PM 62.1 °F 57.9 °F 86% 29.97 in 10.0 mi NNW 10.4 mph - 0.00 in Rain Light Rain
3:54 PM 61.0 °F 57.0 °F 87% 29.97 in 10.0 mi NNW 17.3 mph - 0.01 in   Overcast
4:35 PM 60.8 °F 55.4 °F 82% 30.02 in 10.0 mi North 6.9 mph 17.3 mph 0.00 in Rain Light Rain
4:54 PM 59.0 °F 55.0 °F 87% 29.98 in 10.0 mi North 12.7 mph - 0.00 in   Mostly Cloudy
5:32 PM 57.2 °F 53.6 °F 88% 30.03 in 10.0 mi NNW 15.0 mph 19.6 mph 0.00 in   Mostly Cloudy
5:54 PM 57.0 °F 53.1 °F 87% 29.99 in 10.0 mi NNW 17.3 mph 25.3 mph 0.00 in   Overcast
6:07 PM 57.2 °F 53.6 °F 88% 30.03 in 10.0 mi NNW 15.0 mph 23.0 mph N/A   Overcast
6:29 PM 57.2 °F 53.6 °F 88% 30.04 in 10.0 mi NNW 13.8 mph - N/A   Overcast
6:54 PM 55.9 °F 52.0 °F 87% 30.00 in 10.0 mi NNW 15.0 mph - N/A   Overcast
7:54 PM 55.9 °F 52.0 °F 87% 30.01 in 10.0 mi North 10.4 mph - N/A   Overcast
8:54 PM 55.0 °F 51.1 °F 86% 30.01 in 10.0 mi North 9.2 mph - N/A   Overcast
9:54 PM 55.0 °F 50.0 °F 83% 30.02 in 10.0 mi North 10.4 mph - N/A   Overcast
10:54 PM 55.0 °F 50.0 °F 83% 30.03 in 10.0 mi North 8.1 mph - N/A   Overcast
11:54 PM 54.0 °F 48.9 °F 83% 30.03 in 10.0 mi North 6.9 mph - N/A   Overcast